Location: Bogis-Bossey
(46.3500°N, 6.1667°E)
Time: 17:17:28
(UTC+00:00)

USA 229 DEB - Pass Details

Date: 17 August 2022
Orbit: 929 x 1283 km, 63.4° (Epoch: 28 September)

Event Time Altitude Azimuth Distance (km) Brightness Sun altitude
Rises 20:31:59 0° 218° (SW) 3,602 6.4 -17.1°
Reaches altitude 10° 20:34:26 10° 218° (SW) 2,685 5.8 -17.4°
Maximum altitude 20:40:44 87° 309° (NW) 1,013 3.6 -18.2°
Drops below altitude 10° 20:47:35 10° 39° (NE) 2,911 6.1 -19.1°
Sets 20:50:21 0° 40° (NE) 3,924 6.7 -19.4°
